Location: Lawrence
(38.9720°N, 95.2350°W)
Time: 10:55:00
(UTC-06:00)

JAS-1B - Visible Passes

Search period start: 26 February 2017 00:00
Search period end: 08 March 2017 00:00
Orbit: 912 x 1743 km, 99.0° (Epoch: 26 February)

Date Brightness Start Highest point End Pass type
(mag) Time Alt. Az. Time Alt. Az. Time Alt. Az.
26 Feb 9.6 01:49:58 24° NE 01:49:58 24° NE 01:56:08 10° N visible
26 Feb 8.6 03:42:12 41° NNW 03:42:12 41° NNW 03:47:52 10° NNW visible
26 Feb 9.5 05:34:26 12° NW 05:34:26 12° NW 05:35:28 10° NW visible
26 Feb 10.5 19:02:25 10° NNW 19:05:45 12° NW 19:09:03 10° WNW visible
27 Feb 9.3 02:09:03 30° NE 02:09:03 30° NE 02:15:42 10° N visible
27 Feb 8.6 04:01:17 39° NW 04:01:17 39° NW 04:06:53 10° NNW visible
28 Feb 9.0 02:28:07 38° NE 02:28:07 38° NE 02:35:08 10° N visible
28 Feb 8.7 04:20:22 34° NW 04:20:22 34° NW 04:25:47 10° NNW visible
01 Mar 10.2 00:54:58 11° ENE 00:57:16 12° NE 01:00:30 10° NNE visible
01 Mar 8.7 02:47:12 46° NNE 02:47:12 46° NNE 02:54:28 10° N visible
01 Mar 8.8 04:39:26 29° NW 04:39:26 29° NW 04:44:34 10° NNW visible
02 Mar 10.0 01:14:02 16° ENE 01:15:43 16° NE 01:20:58 10° NNE visible
02 Mar 8.4 03:06:17 54° NNE 03:06:17 54° NNE 03:13:43 10° N visible
02 Mar 9.0 04:58:31 23° WNW 04:58:31 23° WNW 05:03:08 10° NW visible
03 Mar 9.7 01:33:07 21° ENE 01:34:14 22° NE 01:40:51 10° N visible
03 Mar 8.2 03:25:22 59° N 03:25:22 59° N 03:32:54 10° NNW visible
03 Mar 9.2 05:17:36 18° WNW 05:17:36 18° WNW 05:21:25 10° NW visible
03 Mar 10.4 18:46:37 10° NNW 18:50:55 14° NW 18:55:03 10° WNW visible
04 Mar 9.4 01:52:12 28° ENE 01:52:50 28° ENE 02:00:30 10° N visible
04 Mar 8.2 03:44:26 57° NW 03:44:26 57° NW 03:51:58 10° NNW visible
04 Mar 9.4 05:36:41 13° WNW 05:36:41 13° WNW 05:39:05 10° NW visible
04 Mar 10.7 19:08:22 10° NW 19:09:19 10° NW 19:10:15 10° NW visible
05 Mar 9.1 02:11:17 36° ENE 02:11:31 36° ENE 02:19:59 10° N visible
05 Mar 8.3 04:03:31 49° NW 04:03:31 49° NW 04:10:57 10° NNW visible
06 Mar 10.3 00:40:36 10° NE 00:42:26 11° NE 00:44:16 10° NNE visible
06 Mar 8.8 02:30:23 46° ENE 02:30:23 46° ENE 02:39:22 10° N visible
06 Mar 8.4 04:22:37 41° WNW 04:22:37 41° WNW 04:29:49 10° NNW visible
07 Mar 10.2 00:57:14 11° ENE 01:00:50 15° NE 01:05:26 10° NNE visible
07 Mar 8.4 02:49:28 59° ENE 02:49:28 59° ENE 02:58:39 10° N visible
07 Mar 8.7 04:41:43 32° WNW 04:41:43 32° WNW 04:48:31 10° NNW visible
